• In Belarus
  • List of Countries
  • For 7 days
  • Water Temperature
  • Satellite Maps
  • Weather Map
  • Weather Widgets
  • user-avatar
    Login

    Hourly Weather Bugojno

    Today, 21 April, Sunday

    Time Temperature Precipitation Wind Pressure Humidity
    00:00 +6°C° 0 mm 0 mps 717 mmHg 81%
    01:00 +5°C° 0 mm 0 mps 716 mmHg 82%
    02:00 +6°C° 0 mm 1 mps 716 mmHg 81%
    03:00 +6°C° 0 mm 1 mps 716 mmHg 80%
    04:00 +6°C° 0 mm 1 mps 716 mmHg 79%
    05:00 +7°C° 0 mm 1 mps 716 mmHg 72%
    06:00 +9°C° 0 mm 1 mps 716 mmHg 65%
    07:00 +11°C° 0 mm 1 mps 716 mmHg 58%
    08:00 +13°C° 0 mm 1 mps 716 mmHg 50%
    09:00 +16°C° 0 mm 1 mps 716 mmHg 43%
    10:00 +19°C° 0 mm 1 mps 717 mmHg 35%
    11:00 +20°C° 0 mm 1 mps 716 mmHg 33%
    12:00 +21°C° 0 mm 1 mps 716 mmHg 32%
    13:00 +22°C° 0 mm 1 mps 716 mmHg 30%
    14:00 +22°C° 0 mm 1 mps 715 mmHg 32%
    15:00 +21°C° 0 mm 1 mps 715 mmHg 34%
    16:00 +20°C° 0 mm 1 mps 714 mmHg 36%
    17:00 +18°C° 0 mm 1 mps 714 mmHg 47%
    18:00 +15°C° 0 mm 1 mps 714 mmHg 58%
    19:00 +12°C° 0 mm 1 mps 713 mmHg 68%
    20:00 +11°C° 0 mm 1 mps 713 mmHg 75%
    21:00 +11°C° 0 mm 1 mps 713 mmHg 81%
    22:00 +10°C° 0 mm 1 mps 713 mmHg 87%
    23:00 +10°C° 0 mm 1 mps 713 mmHg 88%

    Tomorrow, 22 April, Monday

    Time Temperature Precipitation Wind Pressure Humidity
    00:00 +9°C° 0 mm 1 mps 713 mmHg 90%
    01:00 +9°C° 0 mm 1 mps 713 mmHg 91%
    02:00 +9°C° 0 mm 1 mps 712 mmHg 91%
    03:00 +7°C° 0 mm 2 mps 712 mmHg 92%
    04:00 +7°C° 0 mm 2 mps 712 mmHg 92%
    05:00 +8°C° 0 mm 2 mps 712 mmHg 88%
    06:00 +9°C° 0 mm 2 mps 711 mmHg 84%
    07:00 +12°C° 0 mm 2 mps 711 mmHg 80%
    08:00 +14°C° 0 mm 2 mps 711 mmHg 70%
    09:00 +16°C° 0 mm 2 mps 711 mmHg 60%
    10:00 +18°C° 0 mm 3 mps 711 mmHg 50%
    11:00 +18°C° 0 mm 3 mps 711 mmHg 50%
    12:00 +19°C° 0 mm 3 mps 710 mmHg 50%
    13:00 +19°C° 0 mm 4 mps 710 mmHg 50%
    14:00 +19°C° 0 mm 4 mps 709 mmHg 53%
    15:00 +18°C° 0 mm 4 mps 709 mmHg 55%
    16:00 +18°C° 0 mm 4 mps 708 mmHg 58%
    17:00 +15°C° 0 mm 4 mps 708 mmHg 63%
    18:00 +13°C° 0 mm 3 mps 707 mmHg 69%
    19:00 +11°C° 0 mm 3 mps 707 mmHg 74%
    20:00 +11°C° 0.3 mm 3 mps 707 mmHg 78%
    21:00 +11°C° 0.3 mm 4 mps 707 mmHg 82%
    22:00 +10°C° 0.3 mm 4 mps 707 mmHg 86%
    23:00 +10°C° 0.5 mm 4 mps 707 mmHg 87%

    Day after tomorrow, 23 April, Tuesday

    Time Temperature Precipitation Wind Pressure Humidity
    00:00 +10°C° 0.5 mm 4 mps 706 mmHg 88%
    01:00 +10°C° 0.5 mm 4 mps 706 mmHg 89%
    02:00 +10°C° 0 mm 4 mps 706 mmHg 89%
    03:00 +10°C° 0 mm 4 mps 706 mmHg 88%
    04:00 +10°C° 0 mm 4 mps 705 mmHg 88%
    05:00 +10°C° 0 mm 5 mps 705 mmHg 87%
    06:00 +10°C° 0 mm 5 mps 705 mmHg 86%
    07:00 +12°C° 0 mm 5 mps 705 mmHg 85%
    08:00 +12°C° 0.2 mm 5 mps 705 mmHg 83%
    09:00 +13°C° 0.2 mm 6 mps 705 mmHg 81%
    10:00 +14°C° 0.2 mm 6 mps 706 mmHg 79%
    11:00 +14°C° 0.2 mm 6 mps 706 mmHg 79%
    12:00 +14°C° 0.2 mm 6 mps 706 mmHg 79%
    13:00 +15°C° 0.2 mm 6 mps 706 mmHg 79%
    14:00 +15°C° 0.1 mm 6 mps 706 mmHg 79%
    15:00 +15°C° 0.1 mm 6 mps 706 mmHg 80%
    16:00 +15°C° 0.1 mm 6 mps 706 mmHg 80%
    17:00 +14°C° 0.3 mm 5 mps 706 mmHg 84%
    18:00 +13°C° 0.3 mm 5 mps 706 mmHg 87%
    19:00 +13°C° 0.3 mm 4 mps 707 mmHg 90%
    20:00 +13°C° 0.3 mm 4 mps 707 mmHg 90%
    21:00 +13°C° 0.3 mm 4 mps 708 mmHg 90%
    22:00 +13°C° 0.3 mm 4 mps 708 mmHg 90%
    23:00 +13°C° 0.3 mm 5 mps 709 mmHg 90%

    24 April, Wednesday

    Time Temperature Precipitation Wind Pressure Humidity
    00:00 +13°C° 0.3 mm 5 mps 709 mmHg 89%
    01:00 +13°C° 0.3 mm 5 mps 709 mmHg 89%
    02:00 +13°C° 0.1 mm 5 mps 709 mmHg 90%
    03:00 +12°C° 0.1 mm 4 mps 710 mmHg 91%
    04:00 +12°C° 0.1 mm 4 mps 710 mmHg 92%
    05:00 +12°C° 0 mm 4 mps 710 mmHg 91%
    06:00 +13°C° 0 mm 4 mps 710 mmHg 90%
    07:00 +13°C° 0 mm 4 mps 711 mmHg 88%
    08:00 +14°C° 0 mm 4 mps 711 mmHg 82%
    09:00 +17°C° 0 mm 4 mps 712 mmHg 76%
    10:00 +18°C° 0 mm 4 mps 712 mmHg 70%
    11:00 +19°C° 0 mm 5 mps 712 mmHg 65%
    12:00 +20°C° 0 mm 5 mps 712 mmHg 60%
    13:00 +21°C° 0 mm 6 mps 713 mmHg 55%
    14:00 +21°C° 0 mm 5 mps 712 mmHg 56%
    15:00 +21°C° 0 mm 5 mps 712 mmHg 56%
    16:00 +20°C° 0 mm 5 mps 712 mmHg 57%
    17:00 +18°C° 0 mm 4 mps 712 mmHg 65%
    18:00 +16°C° 0 mm 3 mps 712 mmHg 73%
    19:00 +14°C° 0 mm 2 mps 712 mmHg 81%
    20:00 +13°C° 0 mm 3 mps 712 mmHg 81%
    21:00 +12°C° 0 mm 3 mps 712 mmHg 81%
    22:00 +12°C° 0 mm 3 mps 713 mmHg 80%
    23:00 +12°C° 0 mm 3 mps 713 mmHg 80%

    25 April, Thursday

    Time Temperature Precipitation Wind Pressure Humidity
    00:00 +12°C° 0 mm 3 mps 713 mmHg 81%
    01:00 +11°C° 0 mm 3 mps 713 mmHg 81%
    02:00 +11°C° 0 mm 3 mps 713 mmHg 82%
    03:00 +11°C° 0 mm 3 mps 713 mmHg 84%
    04:00 +12°C° 0 mm 2 mps 713 mmHg 85%
    05:00 +12°C° 0 mm 3 mps 713 mmHg 83%
    06:00 +13°C° 0 mm 3 mps 714 mmHg 80%
    07:00 +16°C° 0 mm 3 mps 714 mmHg 78%
    08:00 +18°C° 0 mm 3 mps 714 mmHg 70%
    09:00 +20°C° 0 mm 2 mps 715 mmHg 63%
    10:00 +23°C° 0 mm 2 mps 715 mmHg 55%
    11:00 +24°C° 0.1 mm 2 mps 715 mmHg 52%
    12:00 +25°C° 0.1 mm 2 mps 714 mmHg 49%
    13:00 +25°C° 0.1 mm 2 mps 714 mmHg 46%
    14:00 +25°C° 0.2 mm 2 mps 714 mmHg 49%
    15:00 +24°C° 0.2 mm 3 mps 713 mmHg 52%
    16:00 +24°C° 0.2 mm 3 mps 713 mmHg 55%
    17:00 +20°C° 0.1 mm 2 mps 713 mmHg 64%
    18:00 +18°C° 0.1 mm 2 mps 712 mmHg 74%
    19:00 +16°C° 0.1 mm 2 mps 712 mmHg 84%
    20:00 +15°C° 0 mm 2 mps 712 mmHg 85%
    21:00 +15°C° 0 mm 2 mps 712 mmHg 87%
    22:00 +14°C° 0 mm 2 mps 712 mmHg 88%
    23:00 +14°C° 0 mm 2 mps 712 mmHg 86%

    26 April, Friday

    Time Temperature Precipitation Wind Pressure Humidity
    00:00 +13°C° 0 mm 2 mps 712 mmHg 83%
    01:00 +13°C° 0 mm 2 mps 712 mmHg 81%
    02:00 +13°C° 0 mm 2 mps 711 mmHg 79%
    03:00 +12°C° 0 mm 2 mps 711 mmHg 78%
    04:00 +12°C° 0 mm 2 mps 711 mmHg 77%
    05:00 +14°C° 0 mm 2 mps 711 mmHg 74%
    06:00 +15°C° 0 mm 2 mps 711 mmHg 72%
    07:00 +17°C° 0 mm 2 mps 712 mmHg 70%
    08:00 +19°C° 0 mm 2 mps 712 mmHg 63%
    09:00 +21°C° 0 mm 2 mps 712 mmHg 57%
    10:00 +24°C° 0 mm 2 mps 713 mmHg 51%
    11:00 +24°C° 0.2 mm 2 mps 712 mmHg 49%
    12:00 +25°C° 0.2 mm 2 mps 712 mmHg 47%
    13:00 +26°C° 0.2 mm 2 mps 712 mmHg 45%
    14:00 +25°C° 0.6 mm 2 mps 712 mmHg 47%
    15:00 +25°C° 0.6 mm 1 mps 712 mmHg 50%
    16:00 +24°C° 0.6 mm 1 mps 711 mmHg 52%
    17:00 +22°C° 0.5 mm 1 mps 711 mmHg 60%
    18:00 +20°C° 0.5 mm 1 mps 711 mmHg 69%
    19:00 +18°C° 0.5 mm 1 mps 711 mmHg 77%
    20:00 +16°C° 1.1 mm 1 mps 712 mmHg 83%
    21:00 +15°C° 1.1 mm 1 mps 713 mmHg 88%
    22:00 +14°C° 1.1 mm 2 mps 713 mmHg 94%
    23:00 +14°C° 0.2 mm 2 mps 714 mmHg 95%
    Show more